SILVERSAT

Last updated on Sun Dec 14 2025 00:02:09 GMT+0000 (Coordinated Universal Time)

1 66909U 98067XV 25346.91909407 .00094974 00000+0 15570-2 0 9991 2 66909 51.6297 141.4878 0004449 228.6613 131.3994 15.51661311 1645
UTC large
Height (km)
Speed (km/s)
/
Latitude / Longitude
Inclination (degrees)
Orbital Period (minutes)
Azimuth
Elevation
Range (km)
Doppler Factor

Next 0 passes for location: London (51.5072 / 0.1276)

Sorry there are no passes over London.